GW0092 Weather Reports


Display with metric or nautical units.
time (UTC)temp
F
wind
direction
speed
MPH
gust
MPH
rain 1hr
in
rain 24hr
in
rain mn
in
humidity
%
barometer
mb
20260508191555 63 91 2.0 5.0 0.00 0.11 0.00 56 1014.2
20260508190051 62 125 3.0 10.0 0.00 0.11 0.00 56 1014.4
20260508184556 62 149 3.0 10.0 0.00 0.11 0.00 56 1014.9
20260508183053 63 157 2.0 8.0 0.00 0.11 0.00 55 1014.7
20260508181556 63 75 3.0 7.0 0.00 0.11 0.00 51 1014.9
20260508180056 63 148 2.0 9.0 0.00 0.11 0.00 52 1015.2
20260508174558 63 221 1.0 4.0 0.00 0.11 0.00 56 1015.2
20260508173054 63 193 2.0 7.0 0.00 0.11 0.00 53 1015.4
20260508171555 64 110 2.0 7.0 0.00 0.11 0.00 51 1015.6
20260508170100 65 194 0.0 4.0 0.00 0.11 0.00 54 1015.3
20260508164554 64 77 2.0 8.0 0.00 0.11 0.00 58 1015.5
20260508163055 64 326 2.0 7.0 0.00 0.11 0.00 53 1015.8
20260508161600 64 349 0.0 5.0 0.00 0.11 0.00 41 1015.9
20260508160055 63 11 2.0 8.0 0.00 0.11 0.00 42 1015.9
20260508154611 63 316 1.0 15.0 0.00 0.11 0.00 44 1015.9
20260508153057 62 301 3.0 7.0 0.00 0.11 0.00 43 1015.9
20260508151554 61 251 3.0 8.0 0.00 0.11 0.00 45 1016.2
20260508150108 61 329 1.0 7.0 0.00 0.11 0.00 53 1016.2
20260508144556 60 328 1.0 8.0 0.00 0.11 0.00 55 1016.2
20260508143124 60 334 1.0 7.0 0.00 0.11 0.00 60 1016.3
20260508141553 59 16 1.0 8.0 0.00 0.11 0.00 58 1016.3
20260508140107 58 334 3.0 7.0 0.00 0.11 0.00 60 1016.1
20260508134556 57 340 3.0 9.0 0.00 0.11 0.00 62 1016.1
20260508133104 57 317 4.0 10.0 0.00 0.11 0.00 70 1016.0
20260508131601 55 335 4.0 9.0 0.00 0.11 0.00 70 1016.1
20260508130054 54 344 4.0 8.0 0.00 0.11 0.00 72 1016.0
20260508124551 53 313 3.0 7.0 0.00 0.12 0.00 79 1015.9
20260508123054 52 340 2.0 8.0 0.00 0.12 0.00 79 1015.7
20260508121552 51 18 4.0 7.0 0.00 0.12 0.00 82 1015.6
20260508120052 51 353 3.0 7.0 0.00 0.12 0.00 83 1015.5
20260508114557 50 286 4.0 6.0 0.00 0.12 0.00 86 1015.3
20260508113056 49 305 2.0 6.0 0.00 0.12 0.00 89 1015.1
20260508111603 48 323 3.0 6.0 0.00 0.12 0.00 91 1014.9
20260508110056 47 297 2.0 4.0 0.00 0.12 0.00 93 1014.6
20260508104551 46 323 1.0 2.0 0.00 0.12 0.00 95 1014.5
20260508103054 46 308 1.0 2.0 0.00 0.12 0.00 95 1014.4
20260508101553 47 309 1.0 2.0 0.00 0.12 0.00 95 1014.2
20260508100054 47 274 2.0 4.0 0.00 0.12 0.00 95 1014.0
20260508094552 47 311 2.0 4.0 0.00 0.12 0.00 95 1013.9
20260508093054 47 271 1.0 5.0 0.00 0.12 0.00 97 1013.5
20260508091607 47 274 1.0 4.0 0.00 0.12 0.00 97 1013.3
20260508090055 47 1 1.0 4.0 0.00 0.12 0.00 97 1013.1
20260508084603 47 323 0.0 3.0 0.00 0.15 0.00 98 1013.0
20260508083103 47 311 1.0 3.0 0.00 0.15 0.00 98 1012.8
20260508081555 46 331 0.0 2.0 0.00 0.15 0.00 98 1012.6
20260508080106 46 330 1.0 3.0 0.00 0.15 0.00 97 1012.4
20260508074554 46 321 1.0 3.0 0.00 0.15 0.00 97 1012.4
20260508073056 47 0 0.0 3.0 0.00 0.15 0.00 97 1012.1
20260508071550 47 314 1.0 3.0 0.00 0.15 0.00 97 1011.9
20260508070057 46 340 1.0 3.0 0.00 0.15 0.00 97 1011.8
20260508064559 46 337 0.0 3.0 0.00 0.21 0.00 97 1011.5
20260508063054 47 311 1.0 2.0 0.00 0.21 0.00 97 1011.5
20260508061552 47 321 1.0 3.0 0.00 0.21 0.00 98 1011.6
20260508060052 47 329 1.0 3.0 0.00 0.21 0.00 98 1011.6
20260508054556 47 339 1.0 2.0 0.00 0.21 0.00 98 1011.6
20260508053059 47 323 0.0 1.0 0.00 0.21 0.00 98 1011.7
20260508051612 47 345 0.0 1.0 0.00 0.21 0.00 98 1011.8
20260508050111 48 337 0.0 1.0 0.00 0.21 0.00 98 1011.7
20260508044556 48 0 0.0 0.0 0.00 0.21 0.00 98 1011.6
20260508043105 49 0 0.0 2.0 0.00 0.21 0.00 98 1011.6
20260508041603 49 294 1.0 3.0 0.00 0.21 0.00 98 1011.4
20260508034552 49 324 1.0 5.0 0.00 0.21 0.21 98 1011.3
20260508033100 49 304 1.0 3.0 0.00 0.21 0.21 98 1011.3
20260508031555 48 0 0.0 0.0 0.00 0.21 0.21 97 1011.1
20260508030058 49 0 0.0 0.0 0.00 0.21 0.21 97 1011.0
20260508024556 49 0 0.0 0.0 0.00 0.21 0.21 96 1011.2
20260508023059 50 0 0.0 0.0 0.00 0.21 0.21 97 1011.3
20260508021601 50 0 0.0 0.0 0.00 0.21 0.21 97 1011.4
20260508020059 50 0 0.0 0.0 0.00 0.21 0.21 97 1011.3
20260508014555 50 0 0.0 0.0 0.00 0.21 0.21 96 1011.2
20260508013050 50 0 0.0 0.0 0.00 0.21 0.21 96 1011.0
20260508011553 50 0 0.0 0.0 0.00 0.21 0.21 96 1011.0
20260508010051 51 0 0.0 0.0 0.00 0.21 0.21 96 1010.7
20260508004554 51 0 0.0 0.0 0.00 0.21 0.21 96 1010.6
20260508003053 51 0 0.0 0.0 0.00 0.21 0.21 96 1010.3
20260508001556 51 0 0.0 0.0 0.00 0.21 0.21 96 1010.2
20260508000100 51 0 0.0 0.0 0.01 0.21 0.21 96 1009.9
20260507234603 51 0 0.0 0.0 0.03 0.21 0.21 96 1009.9
20260507233116 52 0 0.0 0.0 0.04 0.21 0.21 95 1010.1
20260507231557 52 0 0.0 0.0 0.04 0.21 0.21 95 1009.7
20260507230059 52 0 0.0 0.0 0.08 0.20 0.20 95 1009.7
20260507224556 52 0 0.0 0.0 0.07 0.18 0.18 95 1010.0
20260507223105 53 0 0.0 0.0 0.06 0.17 0.17 94 1010.2
20260507221556 53 0 0.0 0.0 0.07 0.17 0.17 94 1009.9
20260507220057 53 0 0.0 0.0 0.02 0.12 0.12 92 1010.1
20260507214603 53 0 0.0 1.0 0.01 0.11 0.11 90 1009.9
20260507213104 54 0 0.0 3.0 0.01 0.11 0.11 88 1010.1
20260507211604 54 0 0.0 0.0 0.00 0.10 0.10 88 1010.1
20260507210109 55 0 0.0 0.0 0.00 0.10 0.10 87 1009.6
20260507204554 55 0 0.0 0.0 0.00 0.10 0.10 85 1009.8
20260507203056 55 0 0.0 0.0 0.00 0.10 0.10 85 1010.0
20260507201600 55 0 0.0 0.0 0.00 0.10 0.10 84 1009.5
20260507200058 56 0 0.0 1.0 0.00 0.10 0.10 77 1009.6
20260507194600 56 0 0.0 1.0 0.00 0.10 0.10 77 1009.4
20260507193050 56 0 0.0 2.0 0.00 0.10 0.10 77 1009.7